Date String (YYYY-MM-DD hh:mm:ss) UTC,Instrument flags,Ambient pressure (hPa),Sample flow (lpm),Bypass flow (lpm),Sample temperature (°C),Ambient temperature (°C),ASC tube jacket temperature (°C),LED temperature (°C),Box temperature (°C),Sample RH (%),Span deviation,Mass concentration (μg/m³),Mass concentration (μg/m³),Mass concentration (μg/m³)
DateTimeUTC,F1_M11,P_M11,Q1_M11,Q2_M11,T1_M11,T2_M11,T3_M11,T4_M11,T5_M11,U1_M11,ZSPAN_M11,X0_M11,X2_M11,X1_M11
2022-10-19 18:00:00,,0832.7,4.99,0.00,30.5,29.4,00.0,39.3,32.3,07.6,0000.0,0008.28,0002.10,0001.04
2022-10-19 18:01:00,,0832.7,5.01,0.00,30.5,29.4,00.0,39.3,32.4,07.9,0000.0,0008.28,0002.15,0001.05
2022-10-19 18:02:00,,0832.6,4.99,0.00,30.6,29.4,00.0,39.3,32.4,08.2,0000.0,0008.70,0002.26,0001.06
2022-10-19 18:03:00,,0832.6,5.01,0.00,30.6,29.5,00.0,39.3,32.4,08.0,0000.0,0008.06,0002.27,0001.06
2022-10-19 18:04:00,,0832.6,5.00,0.00,30.6,29.5,00.0,39.3,32.4,07.9,0000.0,0007.98,0002.27,0001.06
2022-10-19 18:05:00,,0832.6,5.00,0.00,30.6,29.5,00.0,39.3,32.4,07.9,0000.0,0007.83,0002.27,0001.05
2022-10-19 18:06:00,,0832.7,5.00,0.00,30.6,29.1,00.0,39.3,32.5,07.7,0000.0,0007.96,0002.21,0001.07
2022-10-19 18:07:00,,0832.6,5.01,0.00,30.6,27.7,00.0,39.3,32.3,07.9,0000.0,0008.02,0002.16,0001.06
2022-10-19 18:08:00,,0832.6,5.00,0.00,30.5,26.7,00.0,39.2,32.1,08.0,0000.0,0007.94,0002.20,0001.06
2022-10-19 18:09:00,,0832.6,4.99,0.00,30.5,26.8,00.0,39.2,32.1,08.1,0000.0,0007.88,0002.27,0001.07
2022-10-19 18:10:00,,0832.6,5.00,0.00,30.4,27.1,00.0,39.1,31.9,08.2,0000.0,0007.78,0002.22,0001.08
2022-10-19 18:11:00,,0832.6,5.01,0.00,30.3,27.4,00.0,39.1,31.9,08.1,0000.0,0007.93,0002.27,0001.11
2022-10-19 18:12:00,,0832.6,5.01,0.00,30.2,27.7,00.0,39.1,31.9,08.2,0000.0,0008.03,0002.27,0001.13
2022-10-19 18:13:00,,0832.6,5.01,0.00,30.2,28.0,00.0,39.1,31.9,08.1,0000.0,0008.43,0002.24,0001.14
2022-10-19 18:14:00,,0832.6,4.99,0.00,30.2,28.2,00.0,39.1,31.9,08.0,0000.0,0008.87,0002.25,0001.15
2022-10-19 18:15:00,,0832.6,5.01,0.00,30.2,28.4,00.0,39.1,31.9,07.9,0000.0,0009.58,0002.37,0001.16
2022-10-19 18:16:00,,0832.5,5.01,0.00,30.2,28.5,00.0,39.1,32.0,07.9,0000.0,0011.14,0002.42,0001.16
2022-10-19 18:17:00,,0832.5,4.99,0.00,30.2,28.6,00.0,39.1,32.0,07.8,0000.0,0011.96,0002.48,0001.17
2022-10-19 18:18:00,,0832.5,5.01,0.00,30.2,28.7,00.0,39.1,32.0,07.7,0000.0,0012.03,0002.54,0001.17
2022-10-19 18:19:00,,0832.4,5.00,0.00,30.2,28.8,00.0,39.1,32.0,07.7,0000.0,0011.99,0002.58,0001.18
2022-10-19 18:20:00,,0832.4,5.01,0.00,30.2,28.9,00.0,39.1,32.0,07.9,0000.0,0012.67,0002.54,0001.17
2022-10-19 18:21:00,,0832.4,4.99,0.00,30.2,28.9,00.0,39.1,32.0,07.8,0000.0,0014.39,0002.54,0001.17
2022-10-19 18:22:00,,0832.3,5.01,0.00,30.2,29.0,00.0,39.1,32.0,07.9,0000.0,0015.30,0002.54,0001.16
2022-10-19 18:23:00,,0832.3,4.99,0.00,30.3,29.0,00.0,39.1,32.1,08.1,0000.0,0016.00,0002.60,0001.15
2022-10-19 18:24:00,,0832.4,5.01,0.00,30.3,29.1,00.0,39.1,32.1,07.9,0000.0,0015.82,0002.63,0001.15
2022-10-19 18:25:00,,0832.3,4.99,0.00,30.3,29.1,00.0,39.1,32.1,07.4,0000.0,0014.98,0002.57,0001.13
2022-10-19 18:26:00,,0832.3,5.00,0.00,30.3,29.1,00.0,39.1,32.1,07.5,0000.0,0014.60,0002.55,0001.12
2022-10-19 18:27:00,,0832.3,5.00,0.00,30.3,29.2,00.0,39.1,32.2,07.4,0000.0,0013.33,0002.51,0001.12
2022-10-19 18:28:00,,0832.3,4.99,0.00,30.4,29.2,00.0,39.1,32.2,07.6,0000.0,0011.73,0002.47,0001.10
2022-10-19 18:29:00,,0832.3,5.01,0.00,30.4,29.2,00.0,39.2,32.2,07.6,0000.0,0011.16,0002.39,0001.08
2022-10-19 18:30:00,,0832.3,4.99,0.00,30.4,28.3,00.0,39.1,32.2,07.6,0000.0,0011.48,0002.28,0001.07
2022-10-19 18:31:00,,0832.3,5.01,0.00,30.4,27.0,00.0,39.1,32.1,07.5,0000.0,0011.16,0002.22,0001.08
2022-10-19 18:32:00,,0832.3,4.98,0.00,30.3,26.7,00.0,39.0,32.0,07.5,0000.0,0009.89,0002.22,0001.08
2022-10-19 18:33:00,,0832.2,5.01,0.00,30.2,26.9,00.0,39.0,31.8,07.6,0000.0,0009.08,0002.23,0001.08
2022-10-19 18:34:00,,0832.2,4.99,0.00,30.1,27.2,00.0,39.0,31.7,07.9,0000.0,0008.50,0002.24,0001.07
2022-10-19 18:35:00,,0832.2,5.00,0.00,30.1,27.6,00.0,39.0,31.7,07.8,0000.0,0007.96,0002.19,0001.05
2022-10-19 18:36:00,,0832.3,5.01,0.00,30.1,27.9,00.0,39.0,31.7,07.6,0000.0,0007.95,0002.19,0001.05
2022-10-19 18:37:00,,0832.3,4.99,0.00,30.1,28.1,00.0,38.9,31.8,07.6,0000.0,0007.61,0002.14,0001.05
2022-10-19 18:38:00,,0832.2,5.00,0.00,30.1,28.3,00.0,38.9,31.8,07.8,0000.0,0007.41,0002.10,0001.04
2022-10-19 18:39:00,,0832.2,5.00,0.00,30.1,28.4,00.0,38.9,31.8,08.0,0000.0,0008.25,0002.13,0001.03
2022-10-19 18:40:00,,0832.1,5.00,0.00,30.1,28.5,00.0,38.9,31.9,08.1,0000.0,0010.03,0002.23,0001.04
2022-10-19 18:41:00,,0832.1,5.00,0.00,30.1,28.7,00.0,38.9,31.9,08.1,0000.0,0009.70,0002.35,0001.05
2022-10-19 18:42:00,,0832.1,4.98,0.00,30.1,28.7,00.0,38.9,31.9,07.8,0000.0,0009.52,0002.43,0001.05
2022-10-19 18:43:00,,0832.1,5.00,0.00,30.1,28.8,00.0,38.9,31.9,07.9,0000.0,0009.83,0002.46,0001.05
2022-10-19 18:44:00,,0832.1,5.01,0.00,30.1,28.9,00.0,38.9,32.0,08.1,0000.0,0010.11,0002.48,0001.06
2022-10-19 18:45:00,,0832.1,4.99,0.00,30.2,28.9,00.0,39.0,32.0,08.2,0000.0,0010.54,0002.46,0001.06
2022-10-19 18:46:00,,0832.1,5.00,0.00,30.2,29.0,00.0,39.0,32.0,08.0,0000.0,0010.75,0002.52,0001.08
2022-10-19 18:47:00,,0832.1,5.01,0.00,30.2,29.0,00.0,39.0,32.0,08.0,0000.0,0010.83,0002.56,0001.10
2022-10-19 18:48:00,,0832.0,4.99,0.00,30.2,29.1,00.0,39.0,32.1,08.1,0000.0,0011.54,0002.70,0001.12
2022-10-19 18:49:00,,0832.0,5.00,0.00,30.2,28.5,00.0,39.0,32.1,08.2,0000.0,0011.98,0002.84,0001.14
2022-10-19 18:50:00,,0832.0,4.99,0.00,30.2,27.0,00.0,38.9,31.9,08.1,0000.0,0011.47,0002.90,0001.16
2022-10-19 18:51:00,,0832.0,5.02,0.00,30.2,26.5,00.0,38.9,31.9,08.2,0000.0,0009.81,0002.87,0001.17
2022-10-19 18:52:00,,0831.9,5.00,0.00,30.1,26.7,00.0,38.8,31.7,07.9,0000.0,0009.76,0002.78,0001.17
2022-10-19 18:53:00,,0832.0,5.00,0.00,30.0,27.0,00.0,38.8,31.6,07.9,0000.0,0009.78,0002.74,0001.18
2022-10-19 18:54:00,,0831.9,4.99,0.00,29.9,27.3,00.0,38.8,31.6,08.1,0000.0,0009.36,0002.71,0001.18
2022-10-19 18:55:00,,0831.8,4.99,0.00,29.9,27.6,00.0,38.8,31.6,08.2,0000.0,0009.09,0002.64,0001.19
2022-10-19 18:56:00,,0831.8,5.00,0.00,29.9,27.8,00.0,38.8,31.6,08.4,0000.0,0009.18,0002.60,0001.20
2022-10-19 18:57:00,,0831.8,5.01,0.00,29.9,28.0,00.0,38.8,31.7,08.2,0000.0,0008.90,0002.51,0001.18
2022-10-19 18:58:00,,0831.7,5.00,0.00,29.9,28.2,00.0,38.8,31.7,08.2,0000.0,0008.75,0002.46,0001.18
2022-10-19 18:59:00,,0831.7,4.99,0.00,29.9,28.4,00.0,38.8,31.7,08.3,0000.0,0007.97,0002.36,0001.17
